,,Stat5,,Stat1,,Stat2,,Stat3,,Stat4,,Wind1,,Wind1,
time,status,PA1M_AVG,status,PR1M_SUM,status,RH1M_AVG,status,SR1M_AVG,status,TA1M_AVG,status,W1dAve1m,status,W1sAve1m,
2000-12-31, 00:00:00,VALID,917.709,VALID,0,VALID,96.4805,VALID,0,VALID,19.1358,VALID,279,VALID,0,
2000-12-31, 00:01:00,VALID,917.716,VALID,0,VALID,96.5695,VALID,0,VALID,19.139,VALID,219,VALID,0,
2000-12-31, 00:02:00,VALID,917.71,VALID,0,VALID,96.4932,VALID,0,VALID,19.1104,VALID,183,VALID,0.51875,
2000-12-31, 00:03:00,VALID,917.709,VALID,0,VALID,96.3647,VALID,-0.0169808,VALID,19.0615,VALID,186,VALID,0.801562,
2000-12-31, 00:04:00,VALID,917.702,VALID,0,VALID,96.5987,VALID,-0.0169808,VALID,19.0461,VALID,204,VALID,0.595553,
2000-12-31, 00:05:00,VALID,917.709,VALID,0,VALID,96.8823,VALID,-0.0339617,VALID,19.0336,VALID,227,VALID,0.412842,
2000-12-31, 00:06:00,VALID,917.706,VALID,0,VALID,97.1379,VALID,0,VALID,19.0306,VALID,222,VALID,0.58087,
2000-12-31, 00:07:00,VALID,917.698,VALID,0,VALID,97.3782,VALID,-0.0509425,VALID,19.0406,VALID,232,VALID,0.588034,
2000-12-31, 00:08:00,VALID,917.704,VALID,0,VALID,97.5435,VALID,-0.0679233,VALID,19.0436,VALID,230,VALID,0.246194,
2000-12-31, 00:09:00,VALID,917.698,VALID,0,VALID,97.6465,VALID,-0.0169808,VALID,19.0304,VALID,232,VALID,0.164864,
2000-12-31, 00:10:00,VALID,917.702,VALID,0,VALID,97.7673,VALID,-0.0339617,VALID,19.0269,VALID,241,VALID,0,
2000-12-31, 00:11:00,VALID,917.71,VALID,0,VALID,97.9021,VALID,-0.0169808,VALID,19.0433,VALID,244,VALID,0,
2000-12-31, 00:12:00,VALID,917.701,VALID,0,VALID,97.9199,VALID,0,VALID,19.0341,VALID,244,VALID,0,
2000-12-31, 00:13:00,VALID,917.703,VALID,0,VALID,97.9352,VALID,0,VALID,19.0172,VALID,266,VALID,0,
2000-12-31, 00:14:00,VALID,917.708,VALID,0,VALID,97.9555,VALID,0,VALID,19.0309,VALID,252,VALID,0,
2000-12-31, 00:15:00,VALID,917.701,VALID,0,VALID,97.9784,VALID,-0.0509425,VALID,19.0041,VALID,241,VALID,0,
2000-12-31, 00:16:00,VALID,917.695,VALID,0,VALID,98.0051,VALID,0,VALID,19.0175,VALID,242,VALID,0,
2000-12-31, 00:17:00,VALID,917.679,VALID,0,VALID,97.9314,VALID,0,VALID,18.9981,VALID,242,VALID,0,
2000-12-31, 00:18:00,VALID,917.665,VALID,0,VALID,97.9186,VALID,0,VALID,18.979,VALID,242,VALID,0,
2000-12-31, 00:19:00,VALID,917.657,VALID,0,VALID,97.9441,VALID,-0.0169808,VALID,18.9819,VALID,242,VALID,0,
2000-12-31, 00:20:00,VALID,917.644,VALID,0,VALID,98.0102,VALID,-0.0509425,VALID,18.9889,VALID,242,VALID,0,
2000-12-31, 00:21:00,VALID,917.616,VALID,0,VALID,98.0878,VALID,-0.0679233,VALID,19.0018,VALID,242,VALID,0,
2000-12-31, 00:22:00,VALID,917.603,VALID,0,VALID,98.1412,VALID,-0.0509425,VALID,19.0016,VALID,242,VALID,0,
2000-12-31, 00:23:00,VALID,917.595,VALID,0,VALID,98.1539,VALID,0,VALID,19.0078,VALID,242,VALID,0,
2000-12-31, 00:24:00,VALID,917.579,VALID,0,VALID,98.1755,VALID,-0.0169808,VALID,19.0182,VALID,242,VALID,0,
2000-12-31, 00:25:00,VALID,917.576,VALID,0,VALID,98.1755,VALID,-0.0169808,VALID,19.0108,VALID,242,VALID,0,
2000-12-31, 00:26:00,VALID,917.563,VALID,0,VALID,98.1666,VALID,-0.0339617,VALID,19.0078,VALID,242,VALID,0,
2000-12-31, 00:27:00,VALID,917.557,VALID,0,VALID,98.1335,VALID,-0.0339617,VALID,19.005,VALID,242,VALID,0,
2000-12-31, 00:28:00,VALID,917.554,VALID,0,VALID,98.0928,VALID,0,VALID,19.0147,VALID,242,VALID,0,
2000-12-31, 00:29:00,VALID,917.543,VALID,0,VALID,98.0941,VALID,-0.0169808,VALID,19.0244,VALID,242,VALID,0,
2000-12-31, 00:30:00,VALID,917.543,VALID,0,VALID,98.1068,VALID,-0.0169808,VALID,19.0406,VALID,242,VALID,0,
2000-12-31, 00:31:00,VALID,917.538,VALID,0,VALID,98.0865,VALID,-0.0509425,VALID,19.0339,VALID,242,VALID,0,
2000-12-31, 00:32:00,VALID,917.547,VALID,0,VALID,98.0038,VALID,0,VALID,19.0309,VALID,242,VALID,0,
2000-12-31, 00:33:00,VALID,917.527,VALID,0,VALID,97.8589,VALID,-0.0339617,VALID,19.0147,VALID,242,VALID,0,
2000-12-31, 00:34:00,VALID,917.521,VALID,0,VALID,97.7902,VALID,-0.0679233,VALID,19.0046,VALID,242,VALID,0,
2000-12-31, 00:35:00,VALID,917.506,VALID,0,VALID,97.7902,VALID,0,VALID,19.0242,VALID,240,VALID,0,
2000-12-31, 00:36:00,VALID,917.496,VALID,0,VALID,97.8042,VALID,-0.0169808,VALID,19.0309,VALID,238,VALID,0,
2000-12-31, 00:37:00,VALID,917.495,VALID,0,VALID,97.8741,VALID,0,VALID,19.0373,VALID,238,VALID,0,
2000-12-31, 00:38:00,VALID,917.478,VALID,0,VALID,97.8703,VALID,-0.0169808,VALID,19.044,VALID,238,VALID,0,
2000-12-31, 00:39:00,VALID,917.471,VALID,0,VALID,97.766,VALID,-0.0509425,VALID,19.0115,VALID,238,VALID,0,
2000-12-31, 00:40:00,VALID,917.444,VALID,0,VALID,97.7037,VALID,-0.0169808,VALID,18.9886,VALID,238,VALID,0,
2000-12-31, 00:41:00,VALID,917.435,VALID,0,VALID,97.7482,VALID,-0.0169808,VALID,18.9861,VALID,238,VALID,0,
2000-12-31, 00:42:00,VALID,917.427,VALID,0,VALID,97.8017,VALID,-0.0679233,VALID,18.9886,VALID,238,VALID,0,
2000-12-31, 00:43:00,VALID,917.415,VALID,0,VALID,97.8373,VALID,-0.0339617,VALID,18.9857,VALID,238,VALID,0,
2000-12-31, 00:44:00,VALID,917.392,VALID,0,VALID,97.8525,VALID,-0.0339617,VALID,18.9924,VALID,238,VALID,0,
2000-12-31, 00:45:00,VALID,917.382,VALID,0,VALID,97.8347,VALID,-0.0679233,VALID,18.9792,VALID,238,VALID,0,
2000-12-31, 00:46:00,VALID,917.366,VALID,0,VALID,97.836,VALID,-0.0679233,VALID,18.9894,VALID,238,VALID,0,
2000-12-31, 00:47:00,VALID,917.351,VALID,0,VALID,97.8398,VALID,-0.0339617,VALID,18.979,VALID,238,VALID,0,
2000-12-31, 00:48:00,VALID,917.34,VALID,0,VALID,97.8601,VALID,-0.0339617,VALID,18.9792,VALID,238,VALID,0,
2000-12-31, 00:49:00,VALID,917.326,VALID,0,VALID,97.8284,VALID,-0.0169808,VALID,18.9695,VALID,238,VALID,0,
2000-12-31, 00:50:00,VALID,917.32,VALID,0,VALID,97.7877,VALID,-0.0339617,VALID,18.9469,VALID,238,VALID,0,
2000-12-31, 00:51:00,VALID,917.297,VALID,0,VALID,97.7597,VALID,-0.0679233,VALID,18.9377,VALID,238,VALID,0,
2000-12-31, 00:52:00,VALID,917.275,VALID,0,VALID,97.7622,VALID,-0.0849042,VALID,18.9213,VALID,238,VALID,0,
2000-12-31, 00:53:00,VALID,917.247,VALID,0,VALID,97.7953,VALID,-0.0679233,VALID,18.9146,VALID,238,VALID,0,
2000-12-31, 00:54:00,VALID,917.247,VALID,0,VALID,97.7495,VALID,-0.0679233,VALID,18.9185,VALID,238,VALID,0,
2000-12-31, 00:55:00,VALID,917.217,VALID,0,VALID,97.7203,VALID,-0.0169808,VALID,18.9113,VALID,238,VALID,0,
2000-12-31, 00:56:00,VALID,917.21,VALID,0,VALID,97.7457,VALID,-0.0679233,VALID,18.9183,VALID,238,VALID,0,
2000-12-31, 00:57:00,VALID,917.208,VALID,0,VALID,97.7482,VALID,-0.0679233,VALID,18.9056,VALID,238,VALID,0,
2000-12-31, 00:58:00,VALID,917.198,VALID,0,VALID,97.7419,VALID,-0.0679233,VALID,18.8922,VALID,238,VALID,0,
2000-12-31, 00:59:00,VALID,917.18,VALID,0,VALID,97.8309,VALID,-0.0679233,VALID,18.9019,VALID,238,VALID,0,
2000-12-31, 01:00:00,VALID,917.159,VALID,0,VALID,97.9161,VALID,-0.0339617,VALID,18.9118,VALID,237,VALID,0,
2000-12-31, 01:01:00,VALID,917.15,VALID,0,VALID,97.9288,VALID,-0.0339617,VALID,18.8892,VALID,237,VALID,0,
2000-12-31, 01:02:00,VALID,917.13,VALID,0,VALID,97.9059,VALID,0,VALID,18.8798,VALID,237,VALID,0,
2000-12-31, 01:03:00,VALID,917.109,VALID,0,VALID,97.8296,VALID,0,VALID,18.84,VALID,237,VALID,0,
2000-12-31, 01:04:00,VALID,917.091,VALID,0,VALID,97.8347,VALID,-0.0849042,VALID,18.8375,VALID,237,VALID,0,
2000-12-31, 01:05:00,VALID,917.076,VALID,0,VALID,97.836,VALID,-0.0849042,VALID,18.8311,VALID,237,VALID,0,
2000-12-31, 01:06:00,VALID,917.059,VALID,0,VALID,97.9059,VALID,-0.101885,VALID,18.8313,VALID,237,VALID,0,
2000-12-31, 01:07:00,VALID,917.047,VALID,0,VALID,97.9784,VALID,-0.0849042,VALID,18.841,VALID,237,VALID,0,
2000-12-31, 01:08:00,VALID,917.017,VALID,0,VALID,98.028,VALID,-0.101885,VALID,18.847,VALID,237,VALID,0,
2000-12-31, 01:09:00,VALID,917.008,VALID,0,VALID,98.0318,VALID,-0.0849042,VALID,18.8408,VALID,237,VALID,0,
2000-12-31, 01:10:00,VALID,916.995,VALID,0,VALID,97.9492,VALID,-0.101885,VALID,18.8188,VALID,237,VALID,0,
2000-12-31, 01:11:00,VALID,916.993,VALID,0,VALID,97.9542,VALID,-0.101885,VALID,18.7988,VALID,237,VALID,0,
2000-12-31, 01:12:00,VALID,916.979,VALID,0,VALID,97.967,VALID,-0.0679233,VALID,18.7923,VALID,237,VALID,0,
2000-12-31, 01:13:00,VALID,916.961,VALID,0,VALID,97.9619,VALID,-0.101885,VALID,18.7992,VALID,237,VALID,0,
2000-12-31, 01:14:00,VALID,916.937,VALID,0,VALID,97.9619,VALID,-0.101885,VALID,18.7796,VALID,237,VALID,0,
2000-12-31, 01:15:00,VALID,916.913,VALID,0,VALID,97.9708,VALID,-0.0849042,VALID,18.7731,VALID,237,VALID,0,
2000-12-31, 01:16:00,VALID,916.891,VALID,0,VALID,98.0013,VALID,-0.101885,VALID,18.7739,VALID,237,VALID,0,
2000-12-31, 01:17:00,VALID,916.882,VALID,0,VALID,98.0483,VALID,-0.101885,VALID,18.7766,VALID,237,VALID,0,
2000-12-31, 01:18:00,VALID,916.881,VALID,0,VALID,98.1234,VALID,-0.101885,VALID,18.7962,VALID,237,VALID,0,
2000-12-31, 01:19:00,VALID,916.869,VALID,0,VALID,98.178,VALID,-0.118866,VALID,18.7932,VALID,237,VALID,0,
2000-12-31, 01:20:00,VALID,916.844,VALID,0,VALID,98.2365,VALID,-0.101885,VALID,18.8059,VALID,237,VALID,0,
2000-12-31, 01:21:00,VALID,916.839,VALID,0,VALID,98.2454,VALID,-0.101885,VALID,18.7992,VALID,237,VALID,0,
2000-12-31, 01:22:00,VALID,916.824,VALID,0,VALID,98.262,VALID,-0.101885,VALID,18.7928,VALID,237,VALID,0,
2000-12-31, 01:23:00,VALID,916.809,VALID,0,VALID,98.2671,VALID,-0.101885,VALID,18.7928,VALID,237,VALID,0,
2000-12-31, 01:24:00,VALID,916.8,VALID,0,VALID,98.3014,VALID,-0.0849042,VALID,18.7893,VALID,237,VALID,0,
2000-12-31, 01:25:00,VALID,916.782,VALID,0,VALID,98.3014,VALID,-0.0679233,VALID,18.7861,VALID,237,VALID,0,
2000-12-31, 01:26:00,VALID,916.772,VALID,0,VALID,98.3077,VALID,-0.0679233,VALID,18.7824,VALID,237,VALID,0,
2000-12-31, 01:27:00,VALID,916.762,VALID,0,VALID,98.3103,VALID,-0.101885,VALID,18.7863,VALID,237,VALID,0,
2000-12-31, 01:28:00,VALID,916.734,VALID,0,VALID,98.3103,VALID,-0.0339617,VALID,18.7794,VALID,237,VALID,0,
2000-12-31, 01:29:00,VALID,916.721,VALID,0,VALID,98.2607,VALID,-0.0509425,VALID,18.7635,VALID,232,VALID,0,
2000-12-31, 01:30:00,VALID,916.711,VALID,0,VALID,98.2391,VALID,-0.0849042,VALID,18.7371,VALID,232,VALID,0,
2000-12-31, 01:31:00,VALID,916.703,VALID,0,VALID,98.2302,VALID,-0.0679233,VALID,18.7247,VALID,232,VALID,0,
2000-12-31, 01:32:00,VALID,916.7,VALID,0,VALID,98.2276,VALID,-0.0679233,VALID,18.7115,VALID,183,VALID,0,
2000-12-31, 01:33:00,VALID,916.678,VALID,0,VALID,98.2213,VALID,-0.101885,VALID,18.6891,VALID,157,VALID,0,
2000-12-31, 01:34:00,VALID,916.663,VALID,0,VALID,98.2454,VALID,-0.101885,VALID,18.6829,VALID,157,VALID,0,
2000-12-31, 01:35:00,VALID,916.65,VALID,0,VALID,98.2175,VALID,-0.0339617,VALID,18.6596,VALID,157,VALID,0,
2000-12-31, 01:36:00,VALID,916.632,VALID,0,VALID,98.2416,VALID,0,VALID,18.649,VALID,157,VALID,0,
2000-12-31, 01:37:00,VALID,916.614,VALID,0,VALID,98.2645,VALID,0,VALID,18.643,VALID,157,VALID,0,
2000-12-31, 01:38:00,VALID,916.614,VALID,0,VALID,98.3154,VALID,0.0169808,VALID,18.6331,VALID,157,VALID,0,
2000-12-31, 01:39:00,VALID,916.595,VALID,0,VALID,98.3688,VALID,0,VALID,18.639,VALID,157,VALID,0,
2000-12-31, 01:40:00,VALID,916.589,VALID,0,VALID,98.3904,VALID,0.0169808,VALID,18.6425,VALID,157,VALID,0,
2000-12-31, 01:41:00,VALID,916.579,VALID,0,VALID,98.3777,VALID,0,VALID,18.6268,VALID,157,VALID,0,
2000-12-31, 01:42:00,VALID,916.569,VALID,0,VALID,98.3523,VALID,0,VALID,18.6104,VALID,157,VALID,0,
2000-12-31, 01:43:00,VALID,916.568,VALID,0,VALID,98.3917,VALID,0,VALID,18.604,VALID,157,VALID,0,
2000-12-31, 01:44:00,VALID,916.563,VALID,0,VALID,98.4095,VALID,0.0169808,VALID,18.6171,VALID,157,VALID,0,
2000-12-31, 01:45:00,VALID,916.561,VALID,0,VALID,98.4184,VALID,0,VALID,18.6008,VALID,157,VALID,0,
2000-12-31, 01:46:00,VALID,916.56,VALID,0,VALID,98.4158,VALID,-0.0169808,VALID,18.5941,VALID,157,VALID,0,
2000-12-31, 01:47:00,VALID,916.555,VALID,0,VALID,98.4476,VALID,0,VALID,18.5876,VALID,157,VALID,0,
2000-12-31, 01:48:00,VALID,916.557,VALID,0,VALID,98.4756,VALID,0.0169808,VALID,18.6008,VALID,157,VALID,0,
2000-12-31, 01:49:00,VALID,916.562,VALID,0,VALID,98.5188,VALID,0.0169808,VALID,18.6139,VALID,157,VALID,0,
2000-12-31, 01:50:00,VALID,916.559,VALID,0,VALID,98.5875,VALID,0,VALID,18.6268,VALID,157,VALID,0,
2000-12-31, 01:51:00,VALID,916.565,VALID,0,VALID,98.6091,VALID,-0.0169808,VALID,18.6164,VALID,157,VALID,0,
2000-12-31, 01:52:00,VALID,916.559,VALID,0,VALID,98.5633,VALID,0,VALID,18.607,VALID,157,VALID,0,
2000-12-31, 01:53:00,VALID,916.563,VALID,0,VALID,98.5811,VALID,-0.0169808,VALID,18.5973,VALID,157,VALID,0,
2000-12-31, 01:54:00,VALID,916.556,VALID,0,VALID,98.5837,VALID,0.0169808,VALID,18.604,VALID,157,VALID,0,
2000-12-31, 01:55:00,VALID,916.544,VALID,0,VALID,98.5837,VALID,0,VALID,18.5846,VALID,157,VALID,0,
2000-12-31, 01:56:00,VALID,916.549,VALID,0,VALID,98.5888,VALID,0.0169808,VALID,18.5878,VALID,157,VALID,0,
2000-12-31, 01:57:00,VALID,916.534,VALID,0,VALID,98.6346,VALID,0.0169808,VALID,18.5911,VALID,157,VALID,0,
2000-12-31, 01:58:00,VALID,916.538,VALID,0,VALID,98.6549,VALID,0,VALID,18.604,VALID,157,VALID,0,
2000-12-31, 01:59:00,VALID,916.532,VALID,0,VALID,98.6549,VALID,0,VALID,18.601,VALID,157,VALID,0,
2000-12-31, 02:00:00,VALID,916.535,VALID,0,VALID,98.6371,VALID,0,VALID,18.5913,VALID,157,VALID,0,
2000-12-31, 02:01:00,VALID,916.527,VALID,0,VALID,98.6447,VALID,0,VALID,18.5878,VALID,157,VALID,0,
2000-12-31, 02:02:00,VALID,916.532,VALID,0,VALID,98.6625,VALID,0,VALID,18.5881,VALID,157,VALID,0,
2000-12-31, 02:03:00,VALID,916.519,VALID,0,VALID,98.6752,VALID,0,VALID,18.5911,VALID,157,VALID,0,
2000-12-31, 02:04:00,VALID,916.504,VALID,0,VALID,98.6752,VALID,0.0169808,VALID,18.5883,VALID,157,VALID,0,
2000-12-31, 02:05:00,VALID,916.492,VALID,0,VALID,98.693,VALID,0,VALID,18.5811,VALID,157,VALID,0,
2000-12-31, 02:06:00,VALID,916.474,VALID,0,VALID,98.6905,VALID,0.0169808,VALID,18.5814,VALID,157,VALID,0,
2000-12-31, 02:07:00,VALID,916.458,VALID,0,VALID,98.7261,VALID,0.0509425,VALID,18.5943,VALID,157,VALID,0,
2000-12-31, 02:08:00,VALID,916.458,VALID,0,VALID,98.7604,VALID,0.0339617,VALID,18.6005,VALID,157,VALID,0,
2000-12-31, 02:09:00,VALID,916.441,VALID,0,VALID,98.7795,VALID,0,VALID,18.6236,VALID,157,VALID,0,
2000-12-31, 02:10:00,VALID,916.426,VALID,0,VALID,98.81,VALID,0,VALID,18.6296,VALID,157,VALID,0,
2000-12-31, 02:11:00,VALID,916.429,VALID,0,VALID,98.8278,VALID,0.0169808,VALID,18.6231,VALID,157,VALID,0,
2000-12-31, 02:12:00,VALID,916.431,VALID,0,VALID,98.8202,VALID,0.0339617,VALID,18.6266,VALID,157,VALID,0,
2000-12-31, 02:13:00,VALID,916.432,VALID,0,VALID,98.7833,VALID,0.0339617,VALID,18.5911,VALID,157,VALID,0,
2000-12-31, 02:14:00,VALID,916.434,VALID,0,VALID,98.7579,VALID,0,VALID,18.5558,VALID,157,VALID,0,
2000-12-31, 02:15:00,VALID,916.427,VALID,0,VALID,98.7744,VALID,0.0169808,VALID,18.5424,VALID,138,VALID,0,
2000-12-31, 02:16:00,VALID,916.425,VALID,0,VALID,98.7668,VALID,0,VALID,18.5068,VALID,134,VALID,0,
2000-12-31, 02:17:00,VALID,916.421,VALID,0,VALID,98.7668,VALID,0.0169808,VALID,18.4979,VALID,134,VALID,0,
2000-12-31, 02:18:00,VALID,916.414,VALID,0,VALID,98.8024,VALID,0.0169808,VALID,18.4808,VALID,121,VALID,0,
2000-12-31, 02:19:00,VALID,916.412,VALID,0,VALID,98.8444,VALID,0.0509425,VALID,18.4942,VALID,120,VALID,0,
2000-12-31, 02:20:00,VALID,916.39,VALID,0,VALID,98.8889,VALID,0,VALID,18.5039,VALID,120,VALID,0,
2000-12-31, 02:21:00,VALID,916.387,VALID,0,VALID,98.9118,VALID,0.0339617,VALID,18.5039,VALID,120,VALID,0,
2000-12-31, 02:22:00,VALID,916.37,VALID,0,VALID,98.9334,VALID,0.0169808,VALID,18.5135,VALID,120,VALID,0,
2000-12-31, 02:23:00,VALID,916.359,VALID,0,VALID,98.9868,VALID,0.0169808,VALID,18.526,VALID,120,VALID,0,
2000-12-31, 02:24:00,VALID,916.329,VALID,0,VALID,99.0224,VALID,0,VALID,18.5555,VALID,126,VALID,0,
2000-12-31, 02:25:00,VALID,916.325,VALID,0,VALID,99.0237,VALID,0.0339617,VALID,18.5581,VALID,117,VALID,0,
2000-12-31, 02:26:00,VALID,916.325,VALID,0,VALID,99.0135,VALID,0.0169808,VALID,18.5491,VALID,117,VALID,0,
2000-12-31, 02:27:00,VALID,916.315,VALID,0,VALID,99.016,VALID,0.0169808,VALID,18.5491,VALID,113,VALID,0,
2000-12-31, 02:28:00,VALID,916.298,VALID,0,VALID,99.0059,VALID,0.0169808,VALID,18.556,VALID,107,VALID,0,
2000-12-31, 02:29:00,VALID,916.286,VALID,0,VALID,99.0122,VALID,0.0169808,VALID,18.5391,VALID,105,VALID,0,
2000-12-31, 02:30:00,VALID,916.278,VALID,0,VALID,98.997,VALID,0.0169808,VALID,18.5329,VALID,97,VALID,0.240921,
2000-12-31, 02:31:00,VALID,916.263,VALID,0,VALID,99.0008,VALID,0.0169808,VALID,18.5195,VALID,95,VALID,0.465745,
2000-12-31, 02:32:00,VALID,916.262,VALID,0,VALID,99.0122,VALID,0,VALID,18.517,VALID,95,VALID,0.395232,
2000-12-31, 02:33:00,VALID,916.242,VALID,0,VALID,99.0186,VALID,0.0339617,VALID,18.5071,VALID,95,VALID,0.409375,
2000-12-31, 02:34:00,VALID,916.227,VALID,0,VALID,99.0402,VALID,0.0169808,VALID,18.52,VALID,95,VALID,0.446752,
2000-12-31, 02:35:00,VALID,916.214,VALID,0,VALID,99.0351,VALID,0.0339617,VALID,18.5036,VALID,95,VALID,0.426683,
2000-12-31, 02:36:00,VALID,916.18,VALID,0,VALID,99.0478,VALID,0.0169808,VALID,18.5105,VALID,95,VALID,0.518164,
2000-12-31, 02:37:00,VALID,916.159,VALID,0,VALID,99.0529,VALID,0.0169808,VALID,18.5043,VALID,92,VALID,0.419764,
2000-12-31, 02:38:00,VALID,916.128,VALID,0,VALID,99.0745,VALID,0.0169808,VALID,18.4842,VALID,96,VALID,0.436233,
2000-12-31, 02:39:00,VALID,916.102,VALID,0,VALID,99.0771,VALID,0.0169808,VALID,18.4944,VALID,99,VALID,0.399957,
2000-12-31, 02:40:00,VALID,916.083,VALID,0,VALID,99.0783,VALID,0.0339617,VALID,18.4745,VALID,99,VALID,0.220117,
2000-12-31, 02:41:00,VALID,916.074,VALID,0,VALID,99.0987,VALID,0.0169808,VALID,18.4849,VALID,99,VALID,0.157813,
2000-12-31, 02:42:00,VALID,916.066,VALID,0,VALID,99.0974,VALID,0,VALID,18.4683,VALID,99,VALID,0,
2000-12-31, 02:43:00,VALID,916.046,VALID,0,VALID,99.1165,VALID,0.0169808,VALID,18.4715,VALID,99,VALID,0.224159,
2000-12-31, 02:44:00,VALID,916.027,VALID,0,VALID,99.1305,VALID,0.0339617,VALID,18.4748,VALID,97,VALID,0.514509,
2000-12-31, 02:45:00,VALID,916.007,VALID,0,VALID,99.1508,VALID,0.0169808,VALID,18.4842,VALID,89,VALID,0.761418,
2000-12-31, 02:46:00,VALID,915.994,VALID,0,VALID,99.1635,VALID,0.0339617,VALID,18.481,VALID,87,VALID,0.814556,
2000-12-31, 02:47:00,VALID,915.979,VALID,0,VALID,99.1597,VALID,0.0169808,VALID,18.4849,VALID,88,VALID,0.627673,
2000-12-31, 02:48:00,VALID,915.982,VALID,0,VALID,99.1661,VALID,0.0509425,VALID,18.4552,VALID,51,VALID,0.491753,
2000-12-31, 02:49:00,VALID,915.969,VALID,0,VALID,99.1737,VALID,0.0169808,VALID,18.4425,VALID,78,VALID,0.332031,
2000-12-31, 02:50:00,VALID,915.967,VALID,0,VALID,99.1775,VALID,-0.0169808,VALID,18.4466,VALID,69,VALID,0.365119,
2000-12-31, 02:51:00,VALID,915.955,VALID,0,VALID,99.1877,VALID,-0.0849042,VALID,18.4466,VALID,80,VALID,0.275127,
2000-12-31, 02:52:00,VALID,915.95,VALID,0,VALID,99.1966,VALID,-0.101885,VALID,18.4404,VALID,96,VALID,0.397436,
2000-12-31, 02:53:00,VALID,915.942,VALID,0,VALID,99.1953,VALID,-0.0849042,VALID,18.4273,VALID,58,VALID,0.405382,
2000-12-31, 02:54:00,VALID,915.926,VALID,0,VALID,99.1991,VALID,-0.101885,VALID,18.4307,VALID,48,VALID,0.202324,
2000-12-31, 02:55:00,VALID,915.918,VALID,0,VALID,99.2131,VALID,-0.0849042,VALID,18.4404,VALID,48,VALID,0.0207589,
2000-12-31, 02:56:00,VALID,915.902,VALID,0,VALID,99.2208,VALID,-0.0849042,VALID,18.4404,VALID,49,VALID,0.0412109,
2000-12-31, 02:57:00,VALID,915.909,VALID,0,VALID,99.2284,VALID,-0.101885,VALID,18.4538,VALID,50,VALID,0,
2000-12-31, 02:58:00,VALID,915.897,VALID,0,VALID,99.2284,VALID,-0.101885,VALID,18.4464,VALID,50,VALID,0.0306641,
2000-12-31, 02:59:00,VALID,915.899,VALID,0,VALID,99.2424,VALID,-0.0849042,VALID,18.4593,VALID,50,VALID,0.00253378,
2000-12-31, 03:00:00,VALID,915.89,VALID,0,VALID,99.2449,VALID,-0.0509425,VALID,18.4591,VALID,50,VALID,0,
2000-12-31, 03:01:00,VALID,915.886,VALID,0,VALID,99.25,VALID,-0.0849042,VALID,18.4762,VALID,50,VALID,0,
2000-12-31, 03:02:00,VALID,915.879,VALID,0,VALID,99.2487,VALID,-0.101885,VALID,18.4923,VALID,50,VALID,0,
2000-12-31, 03:03:00,VALID,915.876,VALID,0,VALID,99.2449,VALID,-0.118866,VALID,18.4695,VALID,50,VALID,0,
2000-12-31, 03:04:00,VALID,915.865,VALID,0,VALID,99.2475,VALID,-0.0849042,VALID,18.4658,VALID,50,VALID,0,
2000-12-31, 03:05:00,VALID,915.857,VALID,0,VALID,99.264,VALID,-0.0509425,VALID,18.4852,VALID,50,VALID,0,
2000-12-31, 03:06:00,VALID,915.84,VALID,0,VALID,99.2589,VALID,0,VALID,18.4715,VALID,50,VALID,0,
2000-12-31, 03:07:00,VALID,915.818,VALID,0,VALID,99.2665,VALID,0,VALID,18.4879,VALID,77,VALID,0.0501645,
2000-12-31, 03:08:00,VALID,915.793,VALID,0,VALID,99.2525,VALID,0,VALID,18.4782,VALID,110,VALID,0.0010016,
2000-12-31, 03:09:00,VALID,915.775,VALID,0,VALID,99.2602,VALID,0,VALID,18.4752,VALID,109,VALID,0.129492,
2000-12-31, 03:10:00,VALID,915.758,VALID,0,VALID,99.2627,VALID,-0.0169808,VALID,18.4812,VALID,107,VALID,0.197424,
2000-12-31, 03:11:00,VALID,915.74,VALID,0,VALID,99.2538,VALID,0,VALID,18.4748,VALID,95,VALID,0.645481,
2000-12-31, 03:12:00,VALID,915.718,VALID,0,VALID,99.2208,VALID,0,VALID,18.4586,VALID,93,VALID,0.532552,
2000-12-31, 03:13:00,VALID,915.704,VALID,0,VALID,99.2017,VALID,0,VALID,18.436,VALID,94,VALID,0.582617,
2000-12-31, 03:14:00,VALID,915.677,VALID,0,VALID,99.2017,VALID,0,VALID,18.4298,VALID,98,VALID,0.324219,
2000-12-31, 03:15:00,VALID,915.664,VALID,0,VALID,99.1826,VALID,-0.0169808,VALID,18.4266,VALID,98,VALID,0.158654,
2000-12-31, 03:16:00,VALID,915.664,VALID,0,VALID,99.1813,VALID,0.0169808,VALID,18.4134,VALID,97,VALID,0.00500801,
2000-12-31, 03:17:00,VALID,915.644,VALID,0,VALID,99.1941,VALID,0.0169808,VALID,18.4199,VALID,96,VALID,0,
2000-12-31, 03:18:00,VALID,915.635,VALID,0,VALID,99.1928,VALID,0,VALID,18.4226,VALID,95,VALID,0,
2000-12-31, 03:19:00,VALID,915.612,VALID,0,VALID,99.189,VALID,0,VALID,18.4452,VALID,68,VALID,0.304071,
2000-12-31, 03:20:00,VALID,915.591,VALID,0,VALID,99.1788,VALID,0,VALID,18.4519,VALID,80,VALID,0.295641,
2000-12-31, 03:21:00,VALID,915.571,VALID,0,VALID,99.175,VALID,0.0169808,VALID,18.4616,VALID,77,VALID,0.106988,
2000-12-31, 03:22:00,VALID,915.566,VALID,0,VALID,99.1508,VALID,0.0169808,VALID,18.4614,VALID,97,VALID,0.280382,
2000-12-31, 03:23:00,VALID,915.545,VALID,0,VALID,99.1305,VALID,0.0169808,VALID,18.445,VALID,86,VALID,0.0461857,
2000-12-31, 03:24:00,VALID,915.524,VALID,0,VALID,99.0987,VALID,0.0169808,VALID,18.4492,VALID,86,VALID,0,
2000-12-31, 03:25:00,VALID,915.517,VALID,0,VALID,99.0783,VALID,0.0169808,VALID,18.4489,VALID,88,VALID,0.515224,
2000-12-31, 03:26:00,VALID,915.494,VALID,0,VALID,99.0593,VALID,0,VALID,18.4392,VALID,86,VALID,0.673277,
2000-12-31, 03:27:00,VALID,915.478,VALID,0,VALID,99.0542,VALID,0,VALID,18.4261,VALID,90,VALID,0.504006,
2000-12-31, 03:28:00,VALID,915.471,VALID,0,VALID,99.0186,VALID,-0.0169808,VALID,18.4261,VALID,91,VALID,0.465848,
2000-12-31, 03:29:00,VALID,915.478,VALID,0,VALID,99.0135,VALID,0,VALID,18.4196,VALID,100,VALID,0.450977,
2000-12-31, 03:30:00,VALID,915.459,VALID,0,VALID,98.997,VALID,0.0339617,VALID,18.4134,VALID,83,VALID,0.277148,
2000-12-31, 03:31:00,VALID,915.457,VALID,0,VALID,98.9868,VALID,0.0169808,VALID,18.4139,VALID,85,VALID,0,
2000-12-31, 03:32:00,VALID,915.454,VALID,0,VALID,98.969,VALID,0,VALID,18.3973,VALID,90,VALID,0,
2000-12-31, 03:33:00,VALID,915.449,VALID,0,VALID,98.9448,VALID,0.0339617,VALID,18.3841,VALID,95,VALID,0.240017,
2000-12-31, 03:34:00,VALID,915.439,VALID,0,VALID,98.9436,VALID,0.0169808,VALID,18.3781,VALID,91,VALID,0.932143,
2000-12-31, 03:35:00,VALID,915.413,VALID,0,VALID,98.9499,VALID,0,VALID,18.388,VALID,93,VALID,0.823057,
2000-12-31, 03:36:00,VALID,915.406,VALID,0,VALID,98.9003,VALID,0,VALID,18.3781,VALID,91,VALID,0.620566,
2000-12-31, 03:37:00,VALID,915.407,VALID,0,VALID,98.9003,VALID,0.0339617,VALID,18.3617,VALID,86,VALID,0.330128,
2000-12-31, 03:38:00,VALID,915.419,VALID,0,VALID,98.8914,VALID,0.0169808,VALID,18.3518,VALID,94,VALID,0.0450721,
2000-12-31, 03:39:00,VALID,915.426,VALID,0,VALID,98.88,VALID,0,VALID,18.3456,VALID,95,VALID,0.000223214,
2000-12-31, 03:40:00,VALID,915.432,VALID,0,VALID,98.8838,VALID,0,VALID,18.3393,VALID,95,VALID,0.278577,
2000-12-31, 03:41:00,VALID,915.418,VALID,0,VALID,98.9003,VALID,0.0169808,VALID,18.349,VALID,95,VALID,0.226563,
2000-12-31, 03:42:00,VALID,915.419,VALID,0,VALID,98.9359,VALID,0,VALID,18.3749,VALID,72,VALID,0.491406,